Back to catalog

ONEWEB-0597

AliveCommunicationsPO
NORAD 54663·PAYLOAD·🇬🇧 United Kingdom

Launched Dec 8, 2022 from Cape Canaveral Space Force Station

Loading…

Next Passes (next 24 hours)

TLE

FreshSource: CelesTrak SupGP

Epoch: Sep 14, 2026, 11:32 UTC

1 54663C 22166X   26257.48104583 -.00000591  00000+0 -14328-2 0  2579
2 54663  87.9271 226.2101 0002192  85.4186  24.1242 13.21827038    11

Track ONEWEB-0597 in real time with AllMySat

Download on the App Store